Flag for United Arab Emirates Weather past 2 weeks in Sharjah, Sharjah, United Arab Emirates

Now
90 °F

Passing clouds.


Feels Like: 90 °F
Forecast: 79 / 90 °F
Wind: 12 mph from Northwest

Location: Sharjah International Airport

Current Time: Oct 23, 2014 at 4:27:13 PM

Latest Report: Oct 23, 2014 at 4:00 PM


Visibility: N/A

Pressure: 29.89 "Hg

Humidity: 41%

Dew point: 63 °F

Location of SharjahLocation

Historic Weather in Sharjah — Graph

°F

Sharjah temperature yesterday

Maximum temperature yesterday: 99 °F (at 11:00 AM)
Minimum temperature yesterday: 75 °F (at 3:00 AM)
Average temperature yesterday: 87 °F

Past Weeks' High & Low Weather Summary

 TemperatureHumidityPressure
High104 °F (Oct 14, 2:00 PM)89% (Oct 13, 5:00 AM)30.01 "Hg (Oct 13, 5:00 AM)
Low73 °F (Oct 17, 7:00 AM)9% (Oct 14, 2:00 PM)29.74 "Hg (Oct 8, 3:00 PM)
Average88 °F50%29.88 "Hg
* Reported Oct 8 3:00 PM — Oct 23 3:00 PM, Sharjah, Weather by CustomWeather, © 2014

Note: Actual official high and low records may vary slightly from our data, if they occured in-between our weather recording intervals... More about our weather records

Advertising

Sharjah weather history for previous 24 hours

 ConditionsComfort  
Time TempWeatherWind HumidityBarometerVisibility
3:00 PM
Oct 23
91 °FPassing clouds.12 mph38%29.89 "HgN/A
2:00 PM90 °FPassing clouds.12 mph43%29.92 "HgN/A
1:00 PM90 °FSunny.17 mph43%29.95 "Hg10 mi
12:00 PM91 °FPassing clouds.15 mph38%29.98 "HgN/A
11:00 AM91 °FPassing clouds.12 mph44%29.98 "HgN/A
10:00 AM90 °FPassing clouds.9 mph49%30.01 "HgN/A
9:00 AM88 °FPassing clouds.8 mph55%30.01 "HgN/A
8:00 AM81 °FSunny.3 mph66%29.98 "Hg10 mi
7:00 AM79 °FSunny.1 mph70%29.95 "Hg10 mi
6:00 AM79 °FClear.6 mph70%29.92 "Hg10 mi
5:00 AM79 °FClear.6 mph70%29.92 "Hg10 mi
4:00 AM81 °FClear.7 mph70%29.92 "Hg10 mi
3:00 AM81 °FClear.6 mph70%29.92 "Hg10 mi
2:00 AM81 °FClear.6 mph70%29.92 "Hg10 mi
1:00 AM82 °FClear.6 mph70%29.95 "Hg10 mi
12:00 AM86 °FClear.5 mph55%29.95 "Hg10 mi
11:00 PM
Oct 22
88 °FClear.6 mph52%29.95 "Hg10 mi
10:00 PM88 °FClear.8 mph62%29.95 "Hg10 mi
9:00 PM88 °FClear.8 mph62%29.95 "Hg10 mi
8:00 PM88 °FClear.6 mph62%29.95 "Hg10 mi
7:00 PM90 °FClear.9 mph59%29.95 "Hg10 mi
6:00 PM90 °FClear.9 mph67%29.92 "Hg10 mi
5:00 PM91 °FSunny.10 mph63%29.92 "Hg10 mi
4:00 PM91 °FClear.14 mph52%29.92 "Hg5 mi
Weather by CustomWeather, © 2014

See weather overviewHow to use our weather pages